User: anonymous   Login
Location: B?jaj?g
(11.7167°N, 92.6667°E)
Time: 05:29:05
(UTC+00:00)
Language:

SL-24 R/B - Orbit

View from above orbital plane
View from above orbital plane
View from above satellite
View from above satellite

Ground track
Ground track

The orbit data is extracted from the following two-line orbital elements,

1 31123U 07012G   20333.58691118 -.00000027 +00000-0 +51374-5 0  9995
2 31123 098.0051 344.1372 0312583 173.3694 299.2023 14.12609890702022
Epoch (UTC): 28 November 2020 14:05:09
Eccentricity: 0.0312583
inclination: 98.0051°
perigee height: 624 km
apogee height: 1076 km
right ascension of ascending node: 344.1372°
argument of perigee: 173.3694°
revolutions per day: 14.12609890
mean anomaly at epoch: 299.2023°
orbit number at epoch: 70202

The dashed part of the orbit path shows where the satellite is in the earth's shadow,  

DLR